GFSWCAN_850_dewp_357.txt.gz
Dewpoint
6 7 7 6 5 4 3 3 2 2 1 -0 0 -2 -5 -10 -13 -9 -6 -4 -5 -6 -8 -11 -11 -10 -11 -10 -13 -13 -13 -13 -13 -13 -12 -13 -13 -13 -13 -14 -14 -12 -13 -13 -16 -16 -15 -14 -11 -10 -11 -10 -9 -10
6 6 7 7 6 5 3 3 3 2 1 -0 -1 -0 -2 -5 -11 -8 -6 -4 -4 -4 -7 -9 -11 -12 -9 -9 -9 -9 -12 -10 -11 -14 -16 -17 -12 -15 -14 -12 -13 -12 -13 -13 -14 -15 -16 -10 -11 -11 -12 -12 -13 -12
5 5 6 7 6 6 4 2 3 3 2 -1 -1 -0 -0 -2 -6 -4 -4 -5 -4 -5 -6 -10 -12 -12 -11 -8 -7 -9 -10 -10 -11 -10 -12 -17 -14 -13 -13 -13 -13 -13 -13 -11 -11 -15 -13 -12 -11 -11 -11 -12 -12 -13
4 5 6 6 6 6 5 4 3 4 3 2 -1 -1 -0 -0 -3 -5 -5 -4 -4 -4 -7 -12 -14 -10 -9 -10 -8 -7 -8 -9 -9 -9 -10 -18 -13 -12 -13 -13 -12 -13 -12 -12 -12 -13 -14 -14 -14 -12 -10 -10 -11 -11
5 5 5 6 5 5 5 4 3 3 3 2 1 -1 -1 -0 -1 -3 -4 -4 -4 -6 -8 -10 -11 -10 -8 -6 -6 -6 -6 -7 -8 -9 -13 -13 -12 -12 -12 -13 -13 -12 -13 -11 -12 -16 -14 -15 -14 -14 -15 -11 -9 -10
5 6 6 6 5 5 5 5 4 3 3 3 1 -0 -1 -0 -1 -2 -5 -7 -8 -6 -7 -9 -11 -9 -8 -7 -7 -7 -7 -8 -9 -9 -10 -9 -9 -10 -14 -12 -13 -12 -12 -13 -14 -13 -12 -11 -11 -14 -17 -16 -12 -11
6 6 6 6 4 4 5 5 4 3 3 3 2 0 -1 -0 -0 -2 -3 -5 -5 -6 -7 -9 -11 -9 -8 -8 -8 -8 -8 -8 -9 -9 -10 -9 -9 -9 -16 -13 -13 -14 -14 -13 -12 -11 -11 -13 -18 -20 -20 -18 -14 -15
6 7 7 5 3 4 5 5 5 4 3 3 2 -0 -1 -1 -2 -3 -4 -4 -5 -6 -7 -9 -10 -13 -8 -8 -8 -9 -9 -9 -10 -10 -10 -10 -10 -11 -12 -13 -13 -14 -13 -13 -13 -13 -12 -12 -14 -18 -17 -16 -16 -15
7 6 6 4 4 3 6 5 5 4 3 3 1 -1 -2 -3 -4 -5 -6 -6 -6 -6 -7 -10 -11 -12 -10 -9 -9 -9 -9 -11 -11 -11 -11 -10 -13 -12 -12 -13 -13 -13 -13 -13 -12 -12 -11 -11 -13 -16 -16 -15 -14 -14
8 7 7 5 5 4 5 5 5 3 3 2 0 -1 -2 -6 -7 -6 -6 -7 -8 -7 -7 -9 -10 -11 -10 -9 -10 -11 -11 -12 -12 -12 -11 -12 -12 -13 -13 -13 -13 -13 -13 -12 -12 -12 -12 -13 -14 -15 -14 -14 -13 -12
7 7 6 6 4 4 6 5 4 4 3 -0 -1 -2 -3 -5 -5 -6 -7 -9 -10 -10 -8 -9 -9 -12 -11 -12 -12 -11 -13 -14 -13 -12 -12 -13 -13 -13 -13 -13 -13 -12 -13 -12 -11 -11 -13 -13 -13 -14 -13 -12 -12 -12
7 6 6 5 4 5 5 5 4 3 2 1 -0 -2 -3 -5 -6 -9 -11 -11 -11 -9 -12 -11 -11 -11 -10 -10 -12 -13 -13 -14 -11 -14 -13 -12 -13 -14 -12 -12 -12 -13 -12 -12 -12 -12 -11 -11 -11 -11 -13 -13 -12 -12
3 3 3 3 4 5 5 4 4 4 3 -1 -1 -3 -5 -6 -7 -8 -7 -7 -8 -9 -13 -11 -11 -10 -10 -10 -11 -12 -12 -11 -14 -15 -12 -13 -14 -13 -13 -12 -13 -13 -12 -12 -12 -12 -12 -12 -12 -12 -12 -12 -11 -11
2 0 1 2 4 5 5 5 4 4 -0 -1 -3 -4 -6 -6 -8 -7 -6 -5 -7 -14 -12 -10 -10 -9 -10 -10 -10 -9 -10 -13 -13 -14 -11 -13 -16 -14 -12 -12 -12 -12 -12 -12 -13 -13 -13 -13 -13 -12 -12 -11 -11 -10
1 1 3 5 5 5 5 4 2 1 -1 -1 -4 -4 -5 -5 -7 -7 -7 -5 -6 -7 -7 -8 -8 -9 -10 -9 -11 -10 -10 -10 -10 -10 -10 -17 -15 -14 -13 -12 -12 -12 -13 -13 -14 -13 -13 -13 -12 -12 -11 -11 -11 -11
6 6 6 6 5 5 4 1 -1 -1 -2 -2 -3 -5 -5 -5 -5 -6 -5 -5 -5 -6 -6 -7 -9 -9 -9 -9 -11 -10 -8 -8 -8 -9 -14 -14 -10 -12 -13 -12 -12 -12 -13 -13 -14 -14 -13 -13 -12 -12 -12 -12 -12 -12
6 6 6 5 4 5 2 0 -2 -3 -2 -4 -5 -4 -4 -5 -4 -5 -5 -3 -4 -7 -7 -8 -8 -7 -10 -9 -9 -9 -8 -8 -10 -13 -6 -6 -7 -8 -8 -10 -12 -13 -13 -13 -13 -12 -12 -12 -12 -12 -12 -12 -12 -12
6 6 7 6 5 2 -0 -2 -2 -2 -4 -4 -5 -5 -5 -4 -5 -4 -3 -3 -6 -7 -7 -7 -8 -8 -8 -7 -8 -9 -10 -8 -6 -7 -6 -7 -7 -7 -8 -10 -12 -12 -12 -12 -11 -12 -12 -12 -12 -12 -12 -13 -13 -13
6 5 4 3 5 2 -1 -2 -2 -3 -4 -4 -5 -5 -5 -5 -5 -5 -3 -3 -5 -6 -6 -8 -8 -7 -8 -9 -8 -7 -6 -6 -6 -6 -6 -7 -7 -8 -9 -9 -11 -11 -11 -11 -11 -11 -12 -12 -13 -13 -14 -14 -14 -14
5 4 2 2 2 1 -1 -2 -3 -3 -6 -6 -6 -6 -6 -6 -6 -5 -5 -6 -7 -7 -8 -9 -8 -8 -7 -6 -6 -6 -6 -6 -7 -7 -7 -8 -8 -8 -10 -10 -11 -11 -11 -11 -11 -12 -13 -14 -14 -15 -15 -14 -15 -15
3 2 1 1 0 -0 -1 -3 -4 -5 -6 -7 -8 -7 -8 -8 -8 -8 -9 -9 -8 -8 -9 -8 -8 -8 -8 -7 -8 -8 -8 -8 -8 -8 -8 -9 -9 -11 -11 -10 -11 -11 -11 -12 -13 -14 -15 -15 -15 -15 -15 -15 -15 -15
2 1 -0 -2 -2 -2 -3 -5 -5 -6 -7 -8 -8 -8 -9 -10 -10 -10 -10 -10 -10 -10 -9 -10 -10 -10 -10 -10 -9 -9 -10 -10 -10 -10 -10 -11 -11 -11 -11 -11 -12 -12 -13 -14 -15 -15 -16 -16 -16 -16 -16 -16 -16 -16
1 -1 -2 -3 -3 -3 -6 -7 -7 -8 -8 -9 -10 -10 -9 -10 -11 -12 -12 -11 -12 -13 -13 -13 -12 -12 -12 -12 -11 -11 -11 -11 -12 -12 -12 -12 -12 -12 -12 -13 -13 -14 -15 -16 -16 -16 -16 -16 -16 -16 -16 -17 -17 -17
-1 -2 -3 -3 -3 -6 -8 -8 -8 -9 -10 -10 -9 -8 -9 -12 -13 -13 -12 -12 -15 -15 -15 -15 -14 -13 -13 -13 -14 -14 -14 -14 -14 -14 -14 -13 -13 -13 -14 -14 -15 -16 -16 -17 -17 -17 -17 -17 -17 -17 -17 -17 -17 -17
-2 -3 -4 -7 -8 -9 -10 -11 -10 -10 -8 -9 -9 -9 -12 -13 -12 -12 -12 -16 -18 -18 -18 -17 -16 -17 -16 -16 -16 -16 -16 -15 -15 -14 -14 -14 -15 -15 -15 -16 -16 -17 -17 -17 -17 -17 -17 -17 -17 -18 -18 -17 -17 -17
-3 -6 -6 -7 -9 -9 -9 -9 -9 -9 -9 -9 -10 -13 -13 -12 -11 -12 -18 -21 -20 -21 -20 -20 -19 -18 -18 -18 -18 -17 -17 -16 -16 -16 -16 -16 -17 -17 -17 -17 -17 -18 -18 -18 -18 -18 -18 -18 -18 -18 -18 -18 -18 -17
-6 -7 -8 -8 -8 -8 -9 -9 -9 -9 -9 -9 -11 -13 -12 -10 -12 -19 -21 -22 -22 -21 -21 -20 -20 -19 -19 -19 -19 -19 -18 -18 -18 -18 -17 -18 -18 -18 -19 -19 -18 -19 -19 -19 -18 -18 -18 -18 -18 -18 -18 -18 -18 -18
-9 -9 -9 -9 -9 -8 -9 -9 -9 -9 -9 -11 -11 -11 -12 -17 -21 -23 -23 -23 -22 -21 -21 -21 -21 -21 -20 -20 -20 -20 -20 -20 -19 -19 -19 -19 -19 -19 -19 -19 -19 -19 -18 -18 -18 -18 -18 -18 -17 -17 -18 -18 -18 -18
-11 -10 -9 -9 -9 -9 -11 -11 -10 -12 -12 -11 -11 -15 -22 -24 -24 -24 -23 -23 -22 -22 -22 -22 -21 -21 -21 -22 -22 -22 -22 -22 -21 -21 -21 -21 -20 -20 -20 -19 -19 -18 -18 -18 -18 -18 -18 -17 -17 -17 -17 -18 -18 -18
-12 -11 -10 -10 -10 -12 -14 -13 -13 -14 -14 -15 -17 -22 -25 -25 -24 -24 -23 -23 -23 -23 -23 -23 -23 -23 -23 -23 -23 -22 -22 -22 -23 -23 -23 -22 -21 -21 -20 -19 -19 -19 -19 -18 -18 -18 -18 -18 -18 -18 -18 -18 -18 -18
-13 -12 -12 -12 -13 -14 -14 -16 -15 -15 -15 -18 -18 -22 -25 -24 -24 -24 -23 -24 -24 -25 -25 -25 -25 -24 -24 -24 -24 -24 -24 -22 -22 -22 -22 -22 -22 -21 -20 -20 -20 -19 -19 -19 -19 -18 -18 -18 -18 -18 -18 -19 -19 -19
-15 -16 -16 -15 -14 -16 -17 -19 -16 -17 -19 -20 -22 -23 -23 -24 -25 -24 -24 -24 -26 -28 -29 -28 -27 -27 -26 -26 -25 -25 -25 -24 -23 -23 -22 -22 -22 -22 -21 -21 -21 -20 -20 -19 -19 -19 -19 -19 -19 -19 -19 -19 -19 -19
-17 -18 -18 -20 -21 -20 -20 -17 -18 -20 -21 -22 -22 -23 -24 -24 -25 -25 -25 -25 -25 -27 -28 -30 -30 -29 -28 -27 -27 -27 -26 -24 -24 -24 -24 -24 -23 -23 -21 -22 -22 -22 -21 -20 -20 -20 -19 -19 -19 -19 -20 -20 -20 -20

GFSWCAN_850_dewp_360.txt.gz
Dewpoint
6 7 7 6 7 7 6 4 3 3 2 1 1 0 -0 -0 -1 -3 -2 -4 -4 -5 -6 -7 -11 -12 -12 -12 -9 -14 -11 -12 -10 -10 -10 -11 -10 -11 -11 -12 -10 -10 -9 -15 -13 -10 -13 -14 -11 -9 -9 -11 -10 -10
5 6 6 6 6 6 7 6 3 3 3 3 3 1 -0 -0 -0 -1 -2 -3 -4 -4 -5 -5 -5 -6 -11 -9 -10 -10 -11 -12 -10 -9 -11 -11 -9 -12 -11 -11 -13 -9 -10 -10 -11 -16 -14 -12 -11 -13 -12 -11 -12 -13
5 5 5 5 5 6 6 6 5 4 4 4 3 2 0 -0 -0 -1 -2 -3 -4 -4 -5 -7 -11 -12 -10 -9 -8 -8 -10 -11 -11 -11 -10 -10 -8 -12 -9 -11 -11 -12 -13 -9 -10 -11 -12 -12 -13 -13 -12 -11 -11 -12
4 5 5 4 5 6 6 6 5 5 4 3 2 2 2 -0 -0 -0 -2 -3 -4 -4 -5 -7 -12 -12 -10 -9 -7 -6 -8 -10 -9 -9 -9 -9 -9 -12 -11 -11 -11 -12 -11 -9 -9 -11 -12 -15 -17 -19 -14 -12 -11 -11
4 5 5 5 5 5 6 5 5 5 4 3 2 2 2 1 -0 -0 -0 -3 -4 -4 -5 -7 -8 -9 -9 -7 -7 -6 -6 -7 -8 -9 -9 -9 -11 -11 -11 -12 -10 -12 -10 -9 -9 -12 -16 -17 -15 -16 -16 -17 -15 -10
5 4 5 6 6 6 6 5 6 5 5 3 3 3 2 1 -0 -1 -3 -5 -8 -6 -7 -6 -10 -9 -8 -7 -7 -7 -7 -7 -8 -9 -9 -10 -11 -9 -9 -9 -11 -13 -12 -14 -13 -19 -16 -13 -12 -12 -14 -17 -19 -15
5 5 5 6 6 6 6 5 5 5 5 4 3 3 1 1 0 -0 -1 -2 -4 -5 -7 -6 -8 -10 -8 -8 -8 -8 -8 -8 -9 -9 -10 -10 -9 -8 -9 -8 -12 -14 -14 -13 -13 -13 -12 -14 -13 -19 -18 -18 -18 -18
7 6 6 5 6 6 6 4 5 5 5 4 3 2 0 0 -0 -2 -2 -4 -4 -5 -6 -7 -8 -12 -9 -8 -8 -9 -9 -9 -9 -9 -10 -10 -10 -10 -9 -12 -13 -14 -14 -14 -14 -14 -14 -14 -14 -14 -15 -17 -15 -15
7 8 8 7 6 6 6 5 5 5 4 4 2 2 -1 -1 -2 -3 -4 -5 -6 -5 -6 -9 -8 -8 -11 -9 -9 -10 -10 -9 -11 -10 -10 -10 -10 -9 -11 -12 -13 -14 -13 -13 -13 -13 -13 -12 -13 -12 -12 -15 -16 -15
6 6 7 7 7 5 6 5 5 5 4 2 1 1 -1 -3 -3 -5 -6 -7 -7 -7 -7 -8 -10 -9 -11 -10 -10 -10 -11 -10 -9 -11 -11 -10 -10 -12 -13 -14 -14 -13 -13 -13 -13 -13 -13 -13 -13 -13 -13 -14 -14 -14
8 7 7 7 7 6 6 6 5 5 2 0 -0 -0 -1 -3 -4 -5 -7 -8 -9 -9 -8 -9 -9 -9 -11 -9 -9 -11 -10 -12 -9 -11 -10 -10 -10 -13 -14 -13 -13 -14 -14 -13 -13 -12 -11 -12 -13 -14 -13 -13 -13 -12
9 8 8 7 7 6 6 6 5 5 3 2 2 -1 -3 -4 -6 -7 -7 -10 -10 -7 -10 -9 -10 -10 -10 -11 -11 -12 -10 -12 -9 -13 -11 -10 -13 -15 -13 -12 -12 -12 -13 -12 -12 -12 -12 -12 -11 -11 -11 -11 -12 -13
9 8 7 7 6 3 6 5 5 5 3 -0 -0 -2 -4 -5 -5 -5 -4 -7 -7 -8 -10 -11 -10 -10 -10 -10 -10 -10 -9 -9 -13 -11 -11 -12 -15 -15 -13 -12 -12 -13 -13 -12 -12 -13 -13 -13 -13 -12 -12 -12 -12 -11
8 8 7 6 6 5 5 5 4 4 3 0 -2 -3 -4 -4 -6 -5 -5 -5 -8 -6 -9 -8 -10 -9 -10 -10 -9 -8 -9 -11 -9 -10 -10 -13 -16 -16 -13 -13 -13 -12 -12 -12 -14 -14 -14 -14 -13 -13 -13 -12 -12 -11
8 7 6 5 4 3 4 4 4 3 1 -0 -3 -2 -3 -4 -5 -7 -7 -6 -5 -6 -8 -8 -8 -8 -9 -8 -10 -9 -10 -9 -8 -8 -10 -15 -17 -16 -13 -12 -12 -12 -12 -13 -14 -14 -14 -14 -14 -14 -13 -12 -12 -12
6 6 4 3 3 3 4 3 1 -0 -1 -1 -2 -4 -4 -5 -5 -5 -6 -6 -5 -6 -6 -7 -8 -8 -8 -8 -9 -9 -7 -7 -8 -8 -9 -10 -10 -13 -7 -8 -12 -8 -8 -13 -14 -14 -13 -13 -13 -13 -13 -12 -12 -12
5 4 4 3 4 5 3 3 -1 -2 -2 -3 -4 -2 -2 -3 -3 -3 -5 -4 -4 -6 -6 -7 -7 -6 -9 -8 -9 -8 -8 -8 -6 -6 -6 -7 -9 -6 -7 -8 -8 -8 -9 -10 -13 -12 -12 -12 -12 -12 -12 -12 -12 -12
5 5 5 6 4 2 0 -0 -0 -2 -3 -3 -4 -4 -4 -4 -4 -4 -3 -3 -5 -6 -6 -6 -7 -8 -7 -6 -7 -8 -8 -7 -6 -6 -6 -6 -6 -7 -8 -8 -8 -9 -9 -11 -12 -11 -11 -11 -12 -12 -13 -13 -13 -13
6 6 5 4 5 2 0 -1 -1 -3 -3 -3 -4 -4 -4 -5 -5 -4 -4 -3 -4 -5 -6 -7 -6 -6 -7 -7 -7 -7 -6 -7 -6 -7 -7 -7 -7 -8 -8 -8 -9 -9 -10 -11 -11 -10 -11 -12 -12 -14 -14 -14 -14 -14
4 3 3 3 3 2 0 -2 -2 -2 -4 -5 -6 -6 -6 -6 -6 -5 -5 -5 -7 -7 -7 -8 -7 -8 -8 -8 -8 -8 -8 -8 -8 -8 -8 -8 -8 -9 -9 -9 -9 -10 -11 -11 -11 -11 -12 -13 -14 -15 -15 -15 -15 -15
3 2 2 2 2 2 0 -2 -3 -4 -5 -6 -8 -7 -7 -8 -7 -8 -8 -8 -8 -8 -8 -10 -12 -12 -11 -11 -11 -10 -10 -10 -10 -10 -10 -10 -10 -10 -10 -11 -11 -11 -11 -12 -12 -13 -14 -15 -15 -16 -16 -15 -15 -15
3 1 1 0 0 0 -2 -3 -4 -6 -6 -8 -8 -8 -9 -9 -10 -10 -10 -9 -10 -14 -15 -15 -15 -14 -14 -14 -13 -13 -13 -12 -12 -12 -12 -12 -12 -12 -12 -12 -12 -12 -13 -13 -15 -15 -16 -16 -16 -16 -16 -16 -16 -16
2 1 -0 -1 -1 -2 -5 -6 -6 -7 -8 -9 -9 -9 -9 -10 -11 -11 -11 -12 -16 -18 -17 -17 -15 -15 -15 -15 -15 -15 -15 -14 -14 -14 -14 -14 -13 -13 -13 -13 -14 -14 -14 -15 -16 -16 -16 -16 -17 -17 -17 -17 -17 -17
0 -1 -1 -3 -3 -6 -7 -8 -8 -9 -9 -10 -9 -8 -10 -12 -12 -12 -12 -16 -19 -19 -18 -18 -17 -17 -16 -16 -17 -17 -17 -16 -16 -15 -15 -15 -15 -15 -15 -15 -15 -16 -16 -16 -17 -17 -17 -17 -17 -17 -17 -17 -17 -17
-1 -3 -3 -6 -7 -8 -9 -10 -10 -10 -9 -9 -9 -9 -12 -13 -11 -12 -15 -20 -21 -21 -21 -20 -19 -19 -20 -19 -19 -18 -18 -18 -17 -17 -17 -17 -17 -17 -17 -17 -17 -17 -18 -18 -18 -18 -18 -18 -18 -18 -18 -17 -18 -17
-2 -7 -6 -7 -9 -8 -10 -9 -10 -9 -9 -9 -11 -13 -13 -12 -12 -17 -21 -23 -23 -23 -23 -22 -22 -21 -20 -21 -21 -21 -21 -20 -19 -19 -19 -18 -19 -19 -19 -19 -19 -19 -19 -19 -19 -19 -18 -18 -18 -18 -18 -18 -18 -17
-6 -8 -8 -8 -8 -8 -9 -9 -9 -9 -9 -9 -12 -13 -12 -11 -18 -21 -23 -23 -23 -23 -23 -22 -22 -22 -22 -22 -22 -22 -21 -21 -20 -20 -20 -20 -20 -20 -20 -20 -20 -19 -19 -19 -19 -19 -18 -18 -18 -18 -18 -18 -18 -18
-10 -10 -9 -9 -9 -8 -9 -9 -9 -10 -10 -12 -11 -16 -16 -20 -23 -24 -24 -24 -23 -23 -23 -23 -23 -23 -23 -23 -23 -22 -22 -23 -22 -21 -20 -21 -21 -21 -21 -20 -20 -20 -19 -19 -19 -18 -18 -18 -18 -18 -18 -18 -18 -18
-11 -11 -10 -9 -10 -12 -14 -13 -12 -15 -15 -14 -15 -21 -24 -25 -25 -24 -24 -24 -23 -24 -24 -24 -24 -24 -23 -23 -23 -23 -23 -23 -23 -24 -23 -22 -22 -21 -21 -20 -20 -19 -19 -19 -18 -18 -18 -18 -17 -17 -17 -18 -18 -18
-12 -12 -11 -11 -12 -14 -16 -16 -16 -17 -17 -19 -22 -25 -25 -25 -25 -24 -26 -27 -28 -29 -29 -29 -28 -27 -26 -25 -25 -24 -24 -23 -24 -25 -25 -24 -23 -22 -22 -21 -21 -21 -21 -20 -19 -19 -18 -18 -18 -18 -18 -18 -18 -19
-13 -12 -12 -13 -15 -16 -16 -16 -17 -18 -20 -22 -23 -25 -25 -25 -25 -25 -25 -26 -27 -28 -28 -29 -30 -30 -30 -29 -28 -27 -26 -25 -25 -24 -25 -24 -23 -23 -22 -21 -21 -21 -21 -21 -20 -20 -19 -19 -19 -19 -19 -19 -19 -19
-18 -17 -16 -16 -16 -18 -19 -17 -17 -19 -21 -22 -23 -24 -24 -24 -25 -25 -26 -27 -27 -28 -28 -29 -29 -29 -30 -30 -29 -28 -27 -27 -26 -25 -24 -25 -24 -23 -23 -22 -22 -22 -22 -22 -21 -21 -20 -20 -20 -19 -19 -19 -19 -19
-19 -19 -23 -23 -22 -20 -19 -18 -19 -21 -22 -22 -23 -23 -24 -24 -25 -25 -26 -26 -26 -27 -28 -29 -29 -30 -30 -29 -28 -28 -28 -27 -26 -26 -25 -25 -24 -24 -22 -23 -23 -23 -23 -23 -22 -21 -21 -21 -20 -20 -20 -20 -20 -20

GFSWCAN_850_dewp_363.txt.gz
Dewpoint
5 5 6 7 7 7 6 6 6 6 3 3 3 3 2 0 -0 -1 -1 -1 -2 -3 -2 -4 -8 -11 -10 -9 -7 -8 -8 -9 -9 -8 -9 -11 -11 -10 -11 -12 -10 -10 -9 -12 -13 -10 -11 -10 -11 -9 -7 -8 -9 -9
5 5 5 6 6 5 6 6 6 6 4 4 3 3 2 1 0 -0 -1 -1 -2 -3 -3 -4 -4 -5 -6 -9 -9 -10 -7 -10 -8 -7 -8 -8 -7 -10 -11 -10 -14 -9 -10 -7 -9 -12 -12 -11 -11 -11 -14 -13 -9 -9
5 4 4 5 5 5 5 6 6 5 6 4 4 3 2 1 1 0 -1 -1 -2 -3 -3 -4 -8 -11 -11 -8 -7 -6 -7 -10 -11 -11 -7 -7 -7 -11 -8 -9 -12 -13 -12 -9 -10 -11 -11 -12 -12 -13 -14 -14 -10 -10
6 6 4 4 5 5 5 5 5 6 5 5 5 4 3 2 2 1 -0 -1 -2 -3 -4 -3 -6 -10 -10 -10 -9 -7 -8 -9 -10 -10 -7 -7 -7 -12 -9 -10 -11 -12 -11 -10 -9 -10 -10 -11 -13 -14 -17 -16 -13 -11
6 6 6 5 4 5 6 6 5 6 6 5 5 4 3 2 2 1 0 -1 -3 -3 -3 -4 -5 -8 -9 -9 -7 -7 -6 -6 -7 -7 -7 -7 -10 -10 -10 -10 -9 -11 -9 -8 -9 -10 -12 -14 -18 -18 -17 -16 -16 -17
6 6 7 7 5 5 6 6 6 6 5 5 5 4 4 3 2 1 -1 -3 -5 -4 -4 -3 -6 -9 -9 -8 -7 -7 -7 -7 -7 -7 -8 -9 -9 -9 -7 -8 -10 -11 -11 -11 -9 -18 -17 -15 -14 -14 -13 -14 -17 -19
5 5 5 5 6 6 5 5 6 6 6 5 5 4 4 3 1 -0 -0 -1 -2 -3 -5 -4 -4 -9 -9 -8 -8 -8 -8 -8 -7 -8 -9 -9 -9 -8 -8 -7 -11 -10 -10 -11 -13 -14 -14 -14 -14 -14 -17 -17 -17 -17
4 5 5 5 5 5 6 6 6 6 5 5 4 3 3 1 -0 -1 -1 -2 -4 -4 -5 -5 -5 -10 -10 -8 -8 -9 -8 -8 -8 -9 -8 -10 -9 -9 -8 -10 -11 -12 -14 -13 -12 -13 -13 -13 -15 -15 -17 -14 -16 -16
4 7 7 7 7 7 7 7 6 6 5 4 4 1 -0 -0 -1 -2 -3 -5 -5 -4 -5 -6 -5 -4 -11 -9 -9 -9 -9 -9 -9 -10 -10 -10 -10 -8 -9 -10 -10 -11 -12 -14 -14 -13 -14 -13 -14 -14 -13 -13 -12 -14
3 4 6 7 7 7 7 7 6 5 4 4 1 1 -0 -2 -2 -2 -5 -6 -7 -6 -6 -7 -7 -7 -11 -9 -8 -9 -9 -9 -8 -9 -10 -10 -9 -11 -11 -11 -12 -13 -14 -13 -13 -13 -13 -13 -13 -13 -13 -13 -13 -13
5 6 7 8 8 7 7 7 5 5 2 0 1 1 -1 -3 -3 -4 -6 -7 -7 -7 -7 -7 -7 -7 -10 -8 -8 -9 -8 -9 -7 -9 -9 -8 -8 -12 -14 -14 -13 -13 -12 -14 -13 -13 -13 -12 -12 -12 -13 -13 -13 -13
8 8 9 8 9 8 7 6 6 5 3 3 2 1 -1 -3 -5 -6 -5 -8 -8 -6 -7 -8 -8 -8 -9 -12 -9 -10 -8 -10 -7 -12 -10 -9 -12 -13 -14 -13 -12 -14 -13 -14 -14 -13 -13 -12 -12 -12 -12 -12 -12 -12
8 9 9 8 8 7 5 5 6 5 4 2 1 -0 -3 -4 -4 -3 -2 -4 -5 -8 -8 -10 -9 -9 -9 -10 -8 -9 -8 -7 -12 -10 -9 -11 -13 -16 -15 -13 -12 -12 -13 -13 -13 -12 -13 -14 -14 -14 -13 -13 -13 -13
8 9 8 8 8 6 6 5 5 4 2 2 -0 -2 -2 -1 -3 -2 -3 -3 -6 -6 -8 -8 -9 -8 -8 -9 -8 -7 -7 -9 -8 -8 -9 -12 -12 -16 -16 -14 -13 -13 -13 -12 -12 -14 -14 -14 -14 -14 -14 -14 -14 -14
7 8 8 7 7 6 5 4 4 3 2 1 -1 -0 -1 -2 -3 -5 -5 -6 -4 -4 -7 -7 -7 -8 -8 -7 -8 -8 -8 -8 -8 -7 -9 -7 -6 -13 -15 -14 -12 -12 -12 -12 -11 -13 -14 -14 -14 -14 -14 -13 -13 -13
8 7 7 7 6 6 5 4 3 1 1 1 -1 -2 -2 -3 -2 -4 -5 -4 -3 -5 -6 -7 -7 -7 -7 -7 -8 -8 -6 -6 -7 -7 -6 -5 -5 -6 -8 -13 -8 -10 -11 -8 -8 -10 -12 -13 -13 -13 -12 -12 -12 -13
6 6 6 6 5 4 4 3 1 -1 -0 -1 -2 -1 -1 -1 -1 -2 -2 -3 -4 -6 -5 -6 -6 -5 -6 -7 -7 -7 -7 -7 -5 -6 -6 -6 -6 -6 -10 -9 -7 -8 -8 -8 -8 -9 -12 -13 -12 -11 -11 -12 -12 -13
6 6 5 5 4 2 0 1 0 -1 -2 -2 -2 -2 -3 -3 -3 -3 -3 -2 -5 -6 -5 -5 -5 -6 -5 -5 -5 -6 -6 -6 -7 -7 -7 -7 -7 -7 -7 -8 -8 -8 -8 -9 -9 -10 -12 -12 -11 -11 -12 -12 -13 -14
6 5 5 4 4 3 0 -0 -0 -2 -2 -2 -3 -3 -4 -4 -4 -4 -4 -4 -4 -5 -5 -6 -5 -5 -5 -7 -9 -10 -10 -10 -10 -9 -8 -8 -8 -8 -9 -9 -9 -9 -9 -10 -10 -11 -11 -11 -11 -12 -13 -14 -14 -15
3 4 4 4 4 2 0 -1 -1 -1 -3 -4 -5 -6 -5 -5 -6 -5 -5 -6 -7 -6 -6 -6 -9 -12 -13 -13 -13 -13 -13 -13 -12 -12 -10 -10 -10 -10 -10 -10 -11 -11 -11 -11 -11 -12 -12 -12 -13 -14 -15 -15 -15 -16
2 2 3 3 2 2 1 -1 -2 -3 -4 -5 -7 -7 -7 -8 -7 -8 -8 -8 -7 -9 -11 -15 -16 -16 -15 -15 -15 -15 -14 -14 -15 -14 -14 -13 -13 -12 -12 -12 -12 -13 -12 -12 -13 -13 -13 -15 -15 -16 -16 -16 -16 -16
3 2 1 1 1 1 -1 -3 -4 -5 -6 -7 -8 -8 -8 -8 -9 -10 -9 -10 -16 -17 -18 -19 -18 -17 -16 -17 -17 -16 -16 -15 -15 -15 -14 -14 -14 -14 -14 -14 -14 -14 -14 -14 -14 -14 -15 -16 -16 -16 -16 -17 -17 -16
2 0 0 0 0 -1 -5 -5 -6 -7 -6 -8 -9 -8 -8 -9 -11 -10 -12 -16 -18 -20 -20 -19 -18 -18 -18 -18 -17 -17 -17 -17 -16 -17 -16 -16 -16 -16 -16 -16 -16 -16 -16 -16 -16 -16 -17 -17 -17 -17 -17 -17 -17 -17
2 0 0 -1 -2 -6 -7 -8 -8 -8 -9 -8 -8 -7 -9 -11 -12 -11 -15 -18 -20 -21 -21 -20 -19 -19 -19 -18 -19 -19 -19 -19 -18 -18 -18 -18 -18 -18 -18 -18 -18 -18 -18 -18 -18 -18 -18 -18 -18 -18 -18 -18 -18 -18
-0 -2 -3 -6 -7 -7 -7 -8 -9 -9 -7 -8 -8 -9 -11 -12 -11 -15 -18 -21 -21 -22 -23 -22 -21 -22 -22 -22 -22 -21 -21 -21 -21 -20 -20 -20 -19 -19 -20 -19 -19 -19 -19 -19 -19 -19 -19 -19 -18 -18 -18 -18 -18 -18
-2 -7 -6 -5 -8 -7 -8 -8 -8 -8 -8 -8 -10 -12 -12 -11 -14 -19 -21 -23 -23 -24 -24 -24 -24 -23 -23 -23 -23 -23 -22 -22 -23 -22 -21 -21 -21 -21 -22 -21 -21 -20 -20 -20 -20 -19 -19 -19 -19 -19 -18 -18 -18 -18
-6 -8 -8 -8 -8 -8 -8 -9 -9 -8 -8 -9 -11 -11 -11 -12 -19 -22 -23 -24 -24 -24 -23 -24 -24 -24 -24 -24 -23 -23 -23 -23 -23 -23 -21 -21 -22 -22 -22 -22 -22 -20 -21 -20 -20 -20 -19 -19 -19 -18 -18 -18 -18 -18
-10 -10 -8 -9 -9 -9 -9 -9 -9 -11 -12 -14 -12 -18 -18 -20 -22 -24 -25 -24 -24 -24 -24 -25 -26 -26 -26 -26 -25 -24 -24 -23 -23 -24 -24 -22 -22 -22 -22 -21 -21 -21 -20 -20 -20 -20 -19 -19 -18 -18 -18 -18 -18 -18
-12 -11 -10 -9 -11 -13 -15 -14 -14 -17 -18 -17 -18 -21 -24 -25 -25 -25 -25 -27 -28 -29 -29 -29 -29 -29 -29 -29 -29 -29 -28 -26 -24 -25 -25 -25 -25 -24 -22 -22 -22 -21 -21 -21 -20 -20 -20 -19 -19 -18 -18 -18 -18 -18
-13 -12 -11 -13 -13 -15 -17 -18 -19 -19 -20 -21 -23 -25 -25 -26 -25 -25 -26 -27 -27 -27 -27 -28 -28 -28 -29 -30 -30 -31 -29 -28 -26 -26 -27 -25 -25 -24 -23 -23 -22 -22 -22 -22 -22 -21 -20 -20 -19 -19 -19 -18 -18 -19
-14 -13 -12 -14 -16 -18 -19 -19 -20 -20 -22 -23 -24 -24 -25 -26 -26 -26 -26 -26 -27 -27 -27 -28 -28 -29 -29 -30 -29 -29 -30 -28 -28 -27 -26 -26 -25 -24 -24 -24 -23 -22 -22 -23 -23 -22 -22 -21 -20 -20 -20 -20 -19 -19
-21 -19 -16 -15 -18 -18 -18 -18 -19 -21 -22 -23 -24 -24 -25 -25 -25 -26 -26 -26 -26 -27 -28 -28 -29 -29 -29 -29 -28 -27 -28 -27 -27 -27 -26 -26 -26 -24 -24 -23 -23 -24 -24 -23 -23 -23 -23 -22 -21 -21 -20 -20 -20 -20
-21 -23 -24 -23 -21 -20 -19 -19 -21 -22 -22 -23 -24 -24 -24 -24 -25 -25 -26 -26 -26 -27 -28 -28 -28 -29 -28 -28 -28 -28 -27 -27 -26 -27 -27 -26 -25 -24 -23 -24 -24 -24 -23 -22 -22 -22 -22 -22 -22 -21 -21 -21 -21 -20

GFSWCAN_850_dewp_366.txt.gz
Dewpoint
6 5 6 6 6 6 7 6 6 6 6 6 4 4 4 3 1 1 0 0 -1 -2 -1 -2 -5 -7 -8 -10 -6 -6 -8 -8 -8 -7 -7 -8 -9 -9 -11 -11 -11 -11 -10 -8 -12 -12 -11 -11 -10 -10 -10 -11 -12 -10
6 5 6 6 5 5 5 6 6 6 6 6 6 5 5 4 2 2 1 -0 -1 -1 -1 -2 -3 -4 -4 -6 -8 -8 -7 -11 -7 -7 -7 -8 -7 -9 -10 -8 -14 -11 -10 -7 -11 -9 -11 -12 -11 -14 -14 -15 -14 -11
6 6 5 5 5 5 5 5 6 6 5 5 5 5 5 4 3 2 1 -0 -1 -2 -2 -3 -4 -5 -8 -9 -6 -8 -5 -9 -12 -11 -6 -8 -9 -9 -8 -9 -11 -12 -11 -11 -13 -12 -11 -13 -16 -16 -15 -16 -17 -12
6 6 6 6 5 5 4 5 6 6 6 6 6 5 5 4 3 2 1 1 -1 -2 -4 -2 -3 -4 -6 -8 -10 -7 -8 -8 -10 -11 -7 -8 -8 -10 -8 -9 -10 -10 -12 -12 -11 -11 -12 -14 -13 -16 -15 -19 -21 -17
6 6 6 6 6 6 6 5 5 6 6 6 6 5 5 4 4 2 1 1 -1 -2 -2 -2 -3 -5 -8 -9 -8 -7 -7 -7 -7 -7 -8 -8 -9 -10 -9 -10 -9 -11 -11 -9 -9 -10 -11 -15 -21 -16 -15 -19 -18 -18
5 7 7 6 6 5 6 6 6 6 5 6 6 5 4 4 3 1 0 -1 -3 -3 -3 -3 -4 -7 -9 -8 -8 -7 -7 -7 -7 -7 -7 -8 -8 -10 -10 -8 -10 -12 -12 -13 -10 -14 -13 -12 -17 -16 -15 -15 -15 -16
4 5 4 5 6 6 6 6 6 7 6 6 6 5 4 3 3 1 1 -0 -2 -2 -3 -4 -3 -6 -10 -8 -8 -8 -8 -7 -8 -7 -7 -8 -8 -10 -10 -9 -11 -10 -11 -11 -12 -12 -12 -17 -16 -14 -14 -14 -14 -17
4 3 3 4 5 5 5 5 5 6 6 6 5 3 3 1 1 0 0 -1 -3 -3 -4 -5 -4 -7 -9 -8 -7 -8 -8 -8 -8 -8 -7 -9 -9 -8 -9 -10 -11 -11 -11 -12 -14 -12 -12 -13 -14 -14 -15 -16 -17 -15
4 3 4 4 4 5 6 7 7 7 6 5 3 2 1 0 -1 -1 -2 -4 -5 -3 -5 -5 -5 -3 -11 -8 -8 -9 -9 -8 -9 -9 -9 -10 -10 -9 -11 -11 -11 -11 -12 -13 -14 -14 -12 -13 -14 -14 -14 -14 -14 -13
5 4 4 5 4 3 5 6 7 7 5 4 2 1 0 -1 -1 -2 -4 -6 -7 -6 -6 -7 -7 -6 -10 -9 -8 -8 -10 -9 -9 -10 -9 -10 -10 -11 -11 -11 -11 -11 -11 -13 -12 -13 -13 -13 -14 -13 -13 -12 -12 -13
6 5 5 5 5 5 6 7 7 6 3 1 1 1 -1 -1 -2 -4 -6 -6 -7 -7 -8 -7 -7 -6 -7 -7 -7 -9 -9 -9 -10 -10 -12 -9 -9 -10 -13 -15 -15 -14 -13 -12 -12 -13 -13 -13 -13 -12 -12 -13 -13 -13
7 6 6 6 7 8 8 6 5 5 4 2 1 0 -1 -3 -4 -5 -4 -7 -8 -6 -6 -7 -7 -7 -7 -8 -8 -9 -10 -9 -10 -11 -11 -10 -10 -13 -14 -16 -14 -13 -14 -14 -12 -13 -13 -12 -12 -12 -12 -12 -12 -13
8 8 8 8 8 8 8 6 4 3 2 1 2 0 -1 -4 -3 -3 -1 -3 -4 -7 -7 -8 -8 -8 -9 -9 -7 -9 -9 -9 -11 -11 -10 -10 -12 -13 -12 -15 -15 -13 -13 -14 -13 -13 -12 -13 -14 -15 -15 -14 -15 -15
8 8 8 8 8 8 6 5 5 2 2 2 0 -1 -2 -2 -3 -2 -2 -2 -5 -7 -7 -7 -8 -8 -8 -9 -7 -7 -8 -9 -9 -9 -10 -10 -8 -4 -6 -11 -15 -14 -13 -13 -13 -12 -13 -14 -15 -15 -15 -15 -15 -14
8 7 7 7 8 8 5 6 3 1 2 1 0 1 -1 -2 -2 -2 -3 -5 -7 -5 -5 -7 -7 -8 -8 -7 -7 -7 -8 -8 -8 -8 -6 -5 -5 -5 -5 -5 -5 -11 -13 -12 -11 -12 -10 -9 -11 -14 -14 -13 -13 -12
7 7 7 7 8 7 4 3 1 1 2 1 0 -0 -1 -2 -1 -2 -3 -5 -4 -4 -6 -6 -6 -7 -8 -8 -7 -9 -7 -7 -6 -6 -5 -6 -6 -7 -6 -6 -6 -10 -11 -8 -9 -8 -8 -8 -9 -13 -13 -12 -11 -11
7 7 7 8 6 5 3 1 -0 0 0 -1 -1 -1 -1 -1 0 0 -1 -3 -3 -5 -5 -5 -6 -6 -6 -7 -7 -8 -7 -6 -7 -7 -8 -8 -8 -7 -8 -8 -8 -8 -8 -8 -9 -9 -9 -9 -10 -12 -12 -11 -11 -12
7 7 7 6 5 2 -0 -0 0 -0 -2 -1 -2 -1 -1 -0 -1 -1 -2 -2 -4 -5 -5 -5 -5 -6 -6 -5 -5 -10 -12 -12 -12 -12 -12 -11 -10 -10 -10 -10 -10 -10 -10 -10 -10 -10 -10 -10 -11 -11 -11 -11 -12 -14
7 6 4 4 4 1 -1 -1 -0 -2 -2 -2 -2 -2 -2 -3 -3 -3 -3 -3 -4 -5 -5 -6 -6 -6 -9 -12 -14 -15 -15 -15 -15 -15 -14 -12 -13 -12 -12 -12 -12 -11 -11 -11 -11 -12 -12 -12 -12 -12 -12 -14 -15 -15
4 3 3 3 1 1 0 -0 -0 -1 -2 -3 -4 -4 -5 -5 -5 -5 -5 -5 -6 -6 -6 -10 -14 -16 -16 -16 -16 -16 -17 -16 -16 -16 -16 -17 -16 -14 -14 -14 -14 -14 -13 -13 -13 -13 -13 -13 -14 -14 -15 -15 -15 -15
2 0 1 1 1 1 1 -1 -2 -3 -4 -5 -6 -6 -7 -7 -7 -7 -8 -7 -8 -15 -15 -18 -18 -17 -17 -17 -17 -17 -17 -17 -17 -18 -17 -17 -17 -16 -16 -16 -15 -15 -15 -15 -15 -15 -15 -15 -15 -16 -16 -16 -16 -16
2 0 -0 0 1 0 -0 -3 -3 -4 -5 -7 -7 -8 -7 -8 -9 -9 -9 -14 -18 -19 -20 -20 -19 -19 -18 -19 -19 -19 -19 -18 -17 -17 -17 -18 -18 -18 -18 -18 -18 -18 -17 -17 -18 -17 -17 -17 -17 -17 -17 -17 -17 -17
1 0 0 -0 0 -1 -5 -5 -5 -6 -6 -8 -8 -8 -8 -10 -11 -10 -16 -18 -20 -21 -21 -20 -20 -19 -20 -19 -19 -19 -20 -20 -19 -19 -20 -20 -20 -19 -19 -19 -19 -19 -19 -19 -19 -19 -19 -19 -18 -18 -18 -18 -18 -18
1 0 1 -0 -2 -7 -6 -7 -7 -8 -8 -8 -7 -7 -10 -11 -11 -16 -18 -19 -21 -21 -21 -21 -21 -20 -20 -20 -21 -21 -22 -22 -22 -22 -21 -21 -21 -21 -21 -21 -20 -20 -20 -20 -20 -20 -19 -19 -19 -19 -19 -19 -18 -18
0 -2 -2 -5 -6 -7 -7 -8 -8 -8 -7 -7 -7 -10 -12 -12 -13 -18 -19 -22 -23 -23 -23 -22 -22 -22 -23 -23 -23 -23 -23 -23 -23 -23 -23 -22 -22 -22 -22 -23 -23 -21 -21 -21 -21 -20 -20 -20 -19 -19 -19 -19 -19 -18
-1 -7 -6 -6 -7 -6 -7 -7 -8 -8 -8 -9 -11 -12 -12 -12 -17 -20 -22 -24 -24 -24 -24 -24 -24 -23 -24 -25 -25 -26 -25 -24 -24 -23 -24 -24 -22 -23 -23 -23 -23 -23 -22 -21 -21 -20 -20 -20 -19 -19 -19 -19 -18 -18
-6 -8 -8 -8 -8 -8 -9 -9 -8 -8 -9 -10 -11 -11 -11 -15 -20 -22 -23 -24 -24 -24 -24 -27 -29 -29 -29 -29 -29 -29 -29 -29 -27 -25 -25 -24 -23 -23 -24 -24 -23 -23 -23 -22 -21 -21 -20 -20 -19 -19 -18 -18 -18 -18
-10 -10 -8 -9 -11 -11 -10 -10 -12 -14 -14 -16 -15 -19 -18 -20 -22 -24 -25 -24 -26 -28 -28 -28 -28 -28 -29 -29 -30 -30 -31 -31 -30 -29 -28 -28 -26 -24 -24 -23 -23 -22 -22 -22 -22 -21 -21 -21 -20 -20 -19 -18 -18 -18
-12 -11 -10 -11 -13 -16 -17 -16 -16 -19 -20 -18 -19 -22 -24 -25 -25 -25 -25 -26 -27 -27 -27 -28 -29 -29 -29 -29 -30 -29 -28 -29 -28 -28 -28 -29 -28 -28 -25 -24 -23 -23 -23 -23 -23 -22 -22 -21 -21 -21 -20 -19 -19 -19
-13 -12 -12 -15 -15 -17 -19 -19 -20 -22 -21 -22 -23 -25 -25 -26 -25 -26 -26 -26 -27 -27 -28 -28 -28 -29 -29 -29 -30 -30 -29 -28 -27 -28 -28 -27 -27 -26 -25 -25 -23 -23 -24 -23 -24 -23 -23 -23 -22 -21 -20 -20 -20 -20
-14 -13 -14 -16 -18 -20 -20 -20 -21 -22 -23 -24 -24 -25 -26 -26 -26 -26 -26 -26 -27 -27 -27 -28 -28 -28 -29 -29 -28 -28 -29 -28 -27 -27 -27 -27 -27 -26 -26 -24 -24 -24 -25 -24 -23 -23 -23 -23 -23 -22 -21 -21 -20 -20
-21 -18 -15 -17 -19 -20 -20 -20 -21 -22 -23 -24 -25 -25 -25 -25 -26 -26 -26 -26 -26 -27 -27 -28 -28 -28 -28 -28 -28 -28 -27 -27 -26 -26 -27 -26 -26 -24 -24 -23 -24 -26 -24 -23 -22 -22 -22 -22 -22 -22 -22 -21 -21 -21
-23 -25 -23 -21 -20 -20 -20 -20 -22 -23 -23 -24 -24 -24 -24 -24 -25 -25 -26 -26 -26 -26 -27 -28 -28 -28 -28 -28 -28 -28 -27 -28 -27 -26 -26 -26 -25 -24 -23 -24 -25 -24 -23 -23 -23 -22 -22 -22 -22 -22 -22 -22 -21 -21